Location: Allentsteig
(48.6833°N, 15.3167°E)
Time: 22:47:17
(UTC+00:00)

USA 238 DEB - Pass Details

Date: 18 January 2021
Orbit: 995 x 1217 km, 63.4° (Epoch: 07 March)

Event Time Altitude Azimuth Distance (km) Brightness Sun altitude
Rises 16:24:16 0° 309° (NW) 3,992 7.1 -8.1°
Reaches altitude 10° 16:27:53 10° 292° (WNW) 3,067 6.8 -8.7°
Maximum altitude 16:32:30 18° 253° (WSW) 2,545 7.0 -9.4°
Drops below altitude 10° 16:37:12 10° 214° (SSW) 3,133 7.0 -10.1°
Sets 16:40:59 0° 197° (SSW) 4,111 7.3 -10.7°
